Index of /20260430/WXO-DD/model_gdps/15km/12/207
Name Last modified Size Description
Parent Directory -
20260430T12Z_MSC_GDPS_AirTemp_AGL-120m_LatLon0.15_PT207H.grib2 2026-04-30 16:30 906K
20260430T12Z_MSC_GDPS_AirTemp_AGL-2m_LatLon0.15_PT207H.grib2 2026-04-30 16:30 1.0M
20260430T12Z_MSC_GDPS_AirTemp_AGL-40m_LatLon0.15_PT207H.grib2 2026-04-30 16:30 926K
20260430T12Z_MSC_GDPS_AirTemp_AGL-80m_LatLon0.15_PT207H.grib2 2026-04-30 16:30 915K
20260430T12Z_MSC_GDPS_AirTemp_IsbL-0001_LatLon0.15_PT207H.grib2 2026-04-30 16:30 665K
20260430T12Z_MSC_GDPS_AirTemp_IsbL-0005_LatLon0.15_PT207H.grib2 2026-04-30 16:30 696K
20260430T12Z_MSC_GDPS_AirTemp_IsbL-0500_LatLon0.15_PT207H.grib2 2026-04-30 16:30 1.0M
20260430T12Z_MSC_GDPS_AirTemp_IsbL-0700_LatLon0.15_PT207H.grib2 2026-04-30 16:30 948K
20260430T12Z_MSC_GDPS_AirTemp_IsbL-0850_LatLon0.15_PT207H.grib2 2026-04-30 16:30 1.1M
20260430T12Z_MSC_GDPS_AirTemp_IsbL-0925_LatLon0.15_PT207H.grib2 2026-04-30 16:30 1.1M
20260430T12Z_MSC_GDPS_AirTemp_IsbL-1000_LatLon0.15_PT207H.grib2 2026-04-30 16:30 1.1M
20260430T12Z_MSC_GDPS_Albedo_Sfc_LatLon0.15_PT207H.grib2 2026-04-30 16:30 243K
20260430T12Z_MSC_GDPS_ConvectivePrecip-Accum_Sfc_LatLon0.15_PT207H.grib2 2026-04-30 16:30 3.7M
20260430T12Z_MSC_GDPS_DewPointDepression_AGL-2m_LatLon0.15_PT207H.grib2 2026-04-30 16:30 767K
20260430T12Z_MSC_GDPS_DewPointDepression_IsbL-0500_LatLon0.15_PT207H.grib2 2026-04-30 16:30 1.0M
20260430T12Z_MSC_GDPS_DewPointDepression_IsbL-0700_LatLon0.15_PT207H.grib2 2026-04-30 16:30 1.1M
20260430T12Z_MSC_GDPS_DewPointDepression_IsbL-0850_LatLon0.15_PT207H.grib2 2026-04-30 16:30 1.2M
20260430T12Z_MSC_GDPS_DewPointDepression_IsbL-0925_LatLon0.15_PT207H.grib2 2026-04-30 16:30 1.0M
20260430T12Z_MSC_GDPS_DewPointDepression_IsbL-1000_LatLon0.15_PT207H.grib2 2026-04-30 16:30 1.0M
20260430T12Z_MSC_GDPS_DewPoint_AGL-2m_LatLon0.15_PT207H.grib2 2026-04-30 16:30 608K
20260430T12Z_MSC_GDPS_DownwardLongwaveRadiationFlux-Accum_Sfc_LatLon0.15_PT207H.grib2 2026-04-30 16:30 718K
20260430T12Z_MSC_GDPS_DownwardShortwaveRadiationFlux-Accum_Sfc_LatLon0.15_PT207H.grib2 2026-04-30 16:30 888K
20260430T12Z_MSC_GDPS_FreezingRain-Accum_Sfc_LatLon0.15_PT207H.grib2 2026-04-30 16:30 522K
20260430T12Z_MSC_GDPS_GeopotentialHeight_IsbL-0001_LatLon0.15_PT207H.grib2 2026-04-30 16:30 435K
20260430T12Z_MSC_GDPS_GeopotentialHeight_IsbL-0005_LatLon0.15_PT207H.grib2 2026-04-30 16:30 487K
20260430T12Z_MSC_GDPS_GeopotentialHeight_IsbL-0500_LatLon0.15_PT207H.grib2 2026-04-30 16:30 530K
20260430T12Z_MSC_GDPS_GeopotentialHeight_IsbL-0700_LatLon0.15_PT207H.grib2 2026-04-30 16:30 683K
20260430T12Z_MSC_GDPS_GeopotentialHeight_IsbL-0850_LatLon0.15_PT207H.grib2 2026-04-30 16:30 710K
20260430T12Z_MSC_GDPS_GeopotentialHeight_IsbL-0925_LatLon0.15_PT207H.grib2 2026-04-30 16:30 733K
20260430T12Z_MSC_GDPS_GeopotentialHeight_IsbL-1000_LatLon0.15_PT207H.grib2 2026-04-30 16:30 787K
20260430T12Z_MSC_GDPS_IcePellets-Accum_Sfc_LatLon0.15_PT207H.grib2 2026-04-30 16:30 170K
20260430T12Z_MSC_GDPS_LatentHeatNetFlux_Sfc_LatLon0.15_PT207H.grib2 2026-04-30 16:30 685K
20260430T12Z_MSC_GDPS_NetLongwaveRadiationFlux-Accum_Sfc_LatLon0.15_PT207H.grib2 2026-04-30 16:30 909K
20260430T12Z_MSC_GDPS_NetShortwaveRadiationFlux-Accum_Sfc_LatLon0.15_PT207H.grib2 2026-04-30 16:30 867K
20260430T12Z_MSC_GDPS_O3MixingRatio_Sfc_LatLon0.15_PT207H.grib2 2026-04-30 16:46 1.9M
20260430T12Z_MSC_GDPS_O3_EAtm_LatLon0.15_PT207H.grib2 2026-04-30 16:46 2.4M
20260430T12Z_MSC_GDPS_PlanetaryBoundaryLayerHeight_Sfc_LatLon0.15_PT207H.grib2 2026-04-30 16:30 2.4M
20260430T12Z_MSC_GDPS_Precip-Accum_Sfc_LatLon0.15_PT207H.grib2 2026-04-30 16:30 5.4M
20260430T12Z_MSC_GDPS_PrecipRate_Sfc_LatLon0.15_PT207H.grib2 2026-04-30 16:30 3.1M
20260430T12Z_MSC_GDPS_Pressure_MSL_LatLon0.15_PT207H.grib2 2026-04-30 16:30 721K
20260430T12Z_MSC_GDPS_Pressure_Sfc_LatLon0.15_PT207H.grib2 2026-04-30 16:30 1.1M
20260430T12Z_MSC_GDPS_RadiativeTemp_Sfc_LatLon0.15_PT207H.grib2 2026-04-30 16:30 672K
20260430T12Z_MSC_GDPS_Rain-Accum_Sfc_LatLon0.15_PT207H.grib2 2026-04-30 16:30 4.3M
20260430T12Z_MSC_GDPS_RelativeHumidity_AGL-2m_LatLon0.15_PT207H.grib2 2026-04-30 16:30 1.0M
20260430T12Z_MSC_GDPS_Runoff-Accum_Sfc_LatLon0.15_PT207H.grib2 2026-04-30 16:30 133K
20260430T12Z_MSC_GDPS_SensibleHeatNetFlux_Sfc_LatLon0.15_PT207H.grib2 2026-04-30 16:30 465K
20260430T12Z_MSC_GDPS_Snow-Accum_Sfc_LatLon0.15_PT207H.grib2 2026-04-30 16:30 2.1M
20260430T12Z_MSC_GDPS_SnowDepth_Sfc_LatLon0.15_PT207H.grib2 2026-04-30 16:30 1.7M
20260430T12Z_MSC_GDPS_SoilTemp_DBS-0to10cm_LatLon0.15_PT207H.grib2 2026-04-30 16:30 515K
20260430T12Z_MSC_GDPS_SoilTemp_Sfc_LatLon0.15_PT207H.grib2 2026-04-30 16:30 586K
20260430T12Z_MSC_GDPS_SoilVolumetricWaterContent_DBS-0to10cm_LatLon0.15_PT207H.grib2 2026-04-30 16:30 596K
20260430T12Z_MSC_GDPS_SoilVolumetricWaterContent_DBS-0to1cm_LatLon0.15_PT207H.grib2 2026-04-30 16:30 651K
20260430T12Z_MSC_GDPS_SpecificHumidity_AGL-120m_LatLon0.15_PT207H.grib2 2026-04-30 16:30 1.1M
20260430T12Z_MSC_GDPS_SpecificHumidity_AGL-2m_LatLon0.15_PT207H.grib2 2026-04-30 16:30 1.2M
20260430T12Z_MSC_GDPS_SpecificHumidity_AGL-40m_LatLon0.15_PT207H.grib2 2026-04-30 16:30 1.1M
20260430T12Z_MSC_GDPS_SpecificHumidity_AGL-80m_LatLon0.15_PT207H.grib2 2026-04-30 16:30 1.1M
20260430T12Z_MSC_GDPS_SpecificHumidity_IsbL-0001_LatLon0.15_PT207H.grib2 2026-04-30 16:30 1.1M
20260430T12Z_MSC_GDPS_SpecificHumidity_IsbL-0005_LatLon0.15_PT207H.grib2 2026-04-30 16:30 1.0M
20260430T12Z_MSC_GDPS_SpecificHumidity_IsbL-0500_LatLon0.15_PT207H.grib2 2026-04-30 16:30 1.5M
20260430T12Z_MSC_GDPS_SpecificHumidity_IsbL-0700_LatLon0.15_PT207H.grib2 2026-04-30 16:30 1.6M
20260430T12Z_MSC_GDPS_SpecificHumidity_IsbL-0850_LatLon0.15_PT207H.grib2 2026-04-30 16:30 2.0M
20260430T12Z_MSC_GDPS_SpecificHumidity_IsbL-0925_LatLon0.15_PT207H.grib2 2026-04-30 16:30 1.6M
20260430T12Z_MSC_GDPS_SpecificHumidity_IsbL-1000_LatLon0.15_PT207H.grib2 2026-04-30 16:30 1.5M
20260430T12Z_MSC_GDPS_SpecificHumidity_Sfc_LatLon0.15_PT207H.grib2 2026-04-30 16:30 676K
20260430T12Z_MSC_GDPS_Thickness_IsbL-0850to0700_LatLon0.15_PT207H.grib2 2026-04-30 16:30 466K
20260430T12Z_MSC_GDPS_Thickness_IsbL-1000to0500_LatLon0.15_PT207H.grib2 2026-04-30 16:30 371K
20260430T12Z_MSC_GDPS_Thickness_IsbL-1000to0850_LatLon0.15_PT207H.grib2 2026-04-30 16:30 488K
20260430T12Z_MSC_GDPS_TotalCloudCover_Sfc_LatLon0.15_PT207H.grib2 2026-04-30 16:30 840K
20260430T12Z_MSC_GDPS_UVIndex-ClearSky_Sfc_LatLon0.15_PT207H.grib2 2026-04-30 16:46 1.0M
20260430T12Z_MSC_GDPS_UVIndex_Sfc_LatLon0.15_PT207H.grib2 2026-04-30 16:46 1.5M
20260430T12Z_MSC_GDPS_UpwardLongwaveRadiationFlux_NTAtm_LatLon0.15_PT207H.grib2 2026-04-30 16:30 1.1M
20260430T12Z_MSC_GDPS_VerticalVelocity_IsbL-0500_LatLon0.15_PT207H.grib2 2026-04-30 16:30 1.2M
20260430T12Z_MSC_GDPS_VerticalVelocity_IsbL-0700_LatLon0.15_PT207H.grib2 2026-04-30 16:30 1.1M
20260430T12Z_MSC_GDPS_VerticalVelocity_IsbL-0850_LatLon0.15_PT207H.grib2 2026-04-30 16:30 1.3M
20260430T12Z_MSC_GDPS_WindDir_AGL-10m_LatLon0.15_PT207H.grib2 2026-04-30 16:30 1.3M
20260430T12Z_MSC_GDPS_WindDir_AGL-120m_LatLon0.15_PT207H.grib2 2026-04-30 16:30 1.3M
20260430T12Z_MSC_GDPS_WindDir_AGL-40m_LatLon0.15_PT207H.grib2 2026-04-30 16:30 1.4M
20260430T12Z_MSC_GDPS_WindDir_AGL-80m_LatLon0.15_PT207H.grib2 2026-04-30 16:30 1.4M
20260430T12Z_MSC_GDPS_WindDir_IsbL-0001_LatLon0.15_PT207H.grib2 2026-04-30 16:30 676K
20260430T12Z_MSC_GDPS_WindDir_IsbL-0005_LatLon0.15_PT207H.grib2 2026-04-30 16:30 823K
20260430T12Z_MSC_GDPS_WindDir_IsbL-0500_LatLon0.15_PT207H.grib2 2026-04-30 16:30 1.4M
20260430T12Z_MSC_GDPS_WindDir_IsbL-0700_LatLon0.15_PT207H.grib2 2026-04-30 16:30 1.6M
20260430T12Z_MSC_GDPS_WindDir_IsbL-0850_LatLon0.15_PT207H.grib2 2026-04-30 16:30 1.9M
20260430T12Z_MSC_GDPS_WindDir_IsbL-0925_LatLon0.15_PT207H.grib2 2026-04-30 16:30 2.0M
20260430T12Z_MSC_GDPS_WindDir_IsbL-1000_LatLon0.15_PT207H.grib2 2026-04-30 16:30 2.1M
20260430T12Z_MSC_GDPS_WindGust-Max_AGL-10m_LatLon0.15_PT207H.grib2 2026-04-30 16:30 2.2M
20260430T12Z_MSC_GDPS_WindGust-Min_AGL-10m_LatLon0.15_PT207H.grib2 2026-04-30 16:30 2.2M
20260430T12Z_MSC_GDPS_WindGust_AGL-10m_LatLon0.15_PT207H.grib2 2026-04-30 16:30 2.1M
20260430T12Z_MSC_GDPS_WindSpeed_AGL-10m_LatLon0.15_PT207H.grib2 2026-04-30 16:30 1.1M
20260430T12Z_MSC_GDPS_WindSpeed_AGL-120m_LatLon0.15_PT207H.grib2 2026-04-30 16:30 1.2M
20260430T12Z_MSC_GDPS_WindSpeed_AGL-40m_LatLon0.15_PT207H.grib2 2026-04-30 16:30 1.2M
20260430T12Z_MSC_GDPS_WindSpeed_AGL-80m_LatLon0.15_PT207H.grib2 2026-04-30 16:30 1.2M
20260430T12Z_MSC_GDPS_WindSpeed_IsbL-0001_LatLon0.15_PT207H.grib2 2026-04-30 16:30 651K
20260430T12Z_MSC_GDPS_WindSpeed_IsbL-0005_LatLon0.15_PT207H.grib2 2026-04-30 16:30 692K
20260430T12Z_MSC_GDPS_WindSpeed_IsbL-0500_LatLon0.15_PT207H.grib2 2026-04-30 16:30 1.1M
20260430T12Z_MSC_GDPS_WindSpeed_IsbL-0700_LatLon0.15_PT207H.grib2 2026-04-30 16:30 1.5M
20260430T12Z_MSC_GDPS_WindSpeed_IsbL-0850_LatLon0.15_PT207H.grib2 2026-04-30 16:30 1.7M
20260430T12Z_MSC_GDPS_WindSpeed_IsbL-0925_LatLon0.15_PT207H.grib2 2026-04-30 16:30 1.8M
20260430T12Z_MSC_GDPS_WindSpeed_IsbL-1000_LatLon0.15_PT207H.grib2 2026-04-30 16:30 1.8M
20260430T12Z_MSC_GDPS_WindU_AGL-10m_LatLon0.15_PT207H.grib2 2026-04-30 16:30 1.3M
20260430T12Z_MSC_GDPS_WindU_AGL-120m_LatLon0.15_PT207H.grib2 2026-04-30 16:30 1.0M
20260430T12Z_MSC_GDPS_WindU_AGL-40m_LatLon0.15_PT207H.grib2 2026-04-30 16:30 1.0M
20260430T12Z_MSC_GDPS_WindU_AGL-80m_LatLon0.15_PT207H.grib2 2026-04-30 16:30 1.0M
20260430T12Z_MSC_GDPS_WindU_IsbL-0001_LatLon0.15_PT207H.grib2 2026-04-30 16:30 504K
20260430T12Z_MSC_GDPS_WindU_IsbL-0005_LatLon0.15_PT207H.grib2 2026-04-30 16:30 687K
20260430T12Z_MSC_GDPS_WindU_IsbL-0500_LatLon0.15_PT207H.grib2 2026-04-30 16:30 1.1M
20260430T12Z_MSC_GDPS_WindU_IsbL-0700_LatLon0.15_PT207H.grib2 2026-04-30 16:30 1.2M
20260430T12Z_MSC_GDPS_WindU_IsbL-0850_LatLon0.15_PT207H.grib2 2026-04-30 16:30 1.4M
20260430T12Z_MSC_GDPS_WindU_IsbL-0925_LatLon0.15_PT207H.grib2 2026-04-30 16:30 1.5M
20260430T12Z_MSC_GDPS_WindU_IsbL-1000_LatLon0.15_PT207H.grib2 2026-04-30 16:30 1.4M
20260430T12Z_MSC_GDPS_WindV_AGL-10m_LatLon0.15_PT207H.grib2 2026-04-30 16:30 1.3M
20260430T12Z_MSC_GDPS_WindV_AGL-120m_LatLon0.15_PT207H.grib2 2026-04-30 16:30 971K
20260430T12Z_MSC_GDPS_WindV_AGL-40m_LatLon0.15_PT207H.grib2 2026-04-30 16:30 964K
20260430T12Z_MSC_GDPS_WindV_AGL-80m_LatLon0.15_PT207H.grib2 2026-04-30 16:30 970K
20260430T12Z_MSC_GDPS_WindV_IsbL-0001_LatLon0.15_PT207H.grib2 2026-04-30 16:30 716K
20260430T12Z_MSC_GDPS_WindV_IsbL-0005_LatLon0.15_PT207H.grib2 2026-04-30 16:30 764K
20260430T12Z_MSC_GDPS_WindV_IsbL-0500_LatLon0.15_PT207H.grib2 2026-04-30 16:30 1.1M
20260430T12Z_MSC_GDPS_WindV_IsbL-0700_LatLon0.15_PT207H.grib2 2026-04-30 16:30 1.2M
20260430T12Z_MSC_GDPS_WindV_IsbL-0850_LatLon0.15_PT207H.grib2 2026-04-30 16:30 1.4M
20260430T12Z_MSC_GDPS_WindV_IsbL-0925_LatLon0.15_PT207H.grib2 2026-04-30 16:30 1.5M
20260430T12Z_MSC_GDPS_WindV_IsbL-1000_LatLon0.15_PT207H.grib2 2026-04-30 16:30 1.4M